Stations météo

réclame
Mon MeteoGroup
Sete, France (7641): Température de l'air & dewpoint: 18.05.2019 03:00:00 - 24.05.2019 03:00:00 (CEST)Sete, France (7641): Vitesse du vent & gusts: 18.05.2019 03:00:00 - 24.05.2019 03:00:00 (CEST)Sete, France (7641): Direction du vent: 18.05.2019 03:00:00 - 24.05.2019 03:00:00 (CEST)Sete, France (7641): reduced air pressure: 18.05.2019 03:00:00 - 24.05.2019 03:00:00 (CEST)Sete, France (7641): visibility: 18.05.2019 03:00:00 - 24.05.2019 03:00:00 (CEST)Sete, France (7641): Quantités de précipitations: 18.05.2019 03:00:00 - 24.05.2019 03:00:00 (CEST)
Date & Time tt [°C] td [°C] ff [km/h] ff [knt] fx [km/h] fx [knt] dd ppp [hPa] vv [km] rr [mm]
24.05.2019 03:00:00 17,5 9,6 20 11 29 15 W 1013,8 - 0,0
24.05.2019 02:00:00 18,5 8,2 17 9 30 16 W 1014,1 - 0,0
24.05.2019 01:00:00 18,9 7,3 13 7 21 12 WNW 1014,6 - 0,0
24.05.2019 00:00:00 18,3 6,8 9 5 16 9 WNW 1014,9 - 0,0
23.05.2019 23:00:00 17,3 9,5 4 2 11 6 WSW 1015,3 - 0,0
23.05.2019 22:00:00 17,4 9,6 5 3 16 9 WSW 1015,4 - 0,0
23.05.2019 21:00:00 18,0 8,5 12 7 26 14 SW 1015,2 - 0,0
23.05.2019 20:00:00 17,6 10,9 14 7 31 17 SW 1015,1 - 0,0
23.05.2019 19:00:00 18,1 11,4 15 8 25 14 SSW 1015,1 - 0,0
23.05.2019 18:00:00 18,7 12,2 16 8 26 14 SSW 1015,3 - 0,0
23.05.2019 17:00:00 20,4 12,9 13 7 25 14 S 1015,5 - 0,0
23.05.2019 16:00:00 20,8 14,0 15 8 29 16 S 1015,7 - 0,0
23.05.2019 15:00:00 21,2 12,9 18 10 29 16 S 1016,1 - 0,0
23.05.2019 14:00:00 21,1 12,8 18 10 30 16 S 1016,5 20 0,0
23.05.2019 13:00:00 21,2 12,6 19 10 31 17 S 1016,7 - 0,0
23.05.2019 12:00:00 21,3 10,1 16 9 27 14 SSW 1017,1 - 0,0
23.05.2019 11:00:00 21,2 10,4 10 5 19 11 S 1017,2 - 0,0
23.05.2019 10:00:00 22,1 8,6 9 5 23 12 W 1017,4 - 0,0
23.05.2019 09:00:00 21,9 8,7 6 3 14 8 W 1017,2 - 0,0
23.05.2019 08:00:00 20,3 9,5 2 1 11 6 SSW 1017,0 - 0,0
23.05.2019 07:00:00 18,8 7,9 9 5 24 13 NNW 1016,8 - 0,0
23.05.2019 06:00:00 17,8 7,8 17 9 26 14 NW 1016,4 - 0,0
23.05.2019 05:00:00 17,7 6,8 4 2 15 8 N 1016,4 - 0,0
23.05.2019 04:00:00 17,1 8,2 2 1 8 5 WNW 1016,7 - 0,0
23.05.2019 03:00:00 17,4 8,5 5 3 12 6 N 1016,8 - 0,0
23.05.2019 02:00:00 17,5 10,1 5 3 18 10 N 1017,1 - 0,0
23.05.2019 01:00:00 17,4 12,1 13 7 26 14 NNE 1016,8 - 0,0
23.05.2019 00:00:00 16,9 13,2 18 10 31 17 NNE 1016,5 - 0,0
22.05.2019 23:00:00 17,9 13,2 19 11 36 19 NNE 1016,3 - 0,0
22.05.2019 22:00:00 20,0 10,4 8 5 28 15 NNW 1015,4 - 0,0
22.05.2019 21:00:00 18,5 10,8 14 8 39 21 SW 1015,2 - 0,0
22.05.2019 20:00:00 18,0 11,5 24 13 44 24 SW 1015,0 - 0,0
22.05.2019 19:00:00 18,7 12,9 19 10 35 19 SW 1014,9 - 0,0
22.05.2019 18:00:00 21,0 12,4 15 8 32 18 SSW 1015,0 - 0,0
22.05.2019 17:00:00 21,5 12,3 16 8 26 14 SSW 1015,2 - 0,0
22.05.2019 16:00:00 22,0 12,5 14 8 25 14 S 1015,5 - 0,0
22.05.2019 15:00:00 23,4 12,4 11 6 24 13 S 1015,9 - 0,0
22.05.2019 14:00:00 21,1 11,7 12 7 30 16 S 1016,2 - 0,0
22.05.2019 13:00:00 23,6 8,4 16 8 30 16 S 1016,2 - 0,0
22.05.2019 12:00:00 22,7 9,1 14 7 24 13 SSW 1016,4 - 0,0
22.05.2019 11:00:00 22,9 9,3 9 5 26 14 SSW 1016,5 20 0,0
22.05.2019 10:00:00 20,6 8,6 13 7 23 12 W 1016,6 - 0,0
22.05.2019 09:00:00 18,7 7,5 16 9 34 19 WNW 1016,8 - 0,0
22.05.2019 08:00:00 17,4 8,0 20 11 41 22 NW 1016,7 - 0,0
22.05.2019 07:00:00 16,6 7,8 23 13 45 25 NW 1016,2 - 0,0
22.05.2019 06:00:00 16,2 8,2 27 15 40 22 NW 1015,9 - 0,0
22.05.2019 05:00:00 16,6 8,5 25 14 41 22 NW 1015,7 - 0,0
22.05.2019 04:00:00 17,1 8,8 26 14 45 24 NW 1015,6 - 0,0
22.05.2019 03:00:00 17,4 9,0 26 14 40 22 NW 1015,7 - 0,0
22.05.2019 02:00:00 17,3 9,7 24 13 35 19 NW 1015,9 - 0,0
22.05.2019 01:00:00 17,8 9,7 21 11 41 22 NNW 1015,9 - 0,0
22.05.2019 00:00:00 18,6 9,9 22 12 39 21 NW 1015,7 - 0,0
21.05.2019 23:00:00 19,2 9,7 21 11 41 22 NW 1015,5 - 0,0
21.05.2019 22:00:00 19,6 10,0 14 7 35 19 WNW 1015,0 - 0,0
21.05.2019 21:00:00 20,3 9,2 11 6 45 24 NW 1014,3 - 0,0
21.05.2019 20:00:00 22,1 9,6 16 8 38 20 NW 1013,5 20 0,0
21.05.2019 19:00:00 23,6 9,6 10 5 39 21 WNW 1013,2 - 0,0
21.05.2019 18:00:00 23,9 9,8 15 8 41 22 NNW 1013,1 - 0,0
21.05.2019 17:00:00 24,6 9,7 12 6 41 22 NW 1013,0 20 0,0
21.05.2019 16:00:00 25,1 9,4 14 7 43 23 WNW 1012,9 - 0,0
21.05.2019 15:00:00 24,8 9,1 17 9 37 20 NW 1013,1 - 0,0
21.05.2019 14:00:00 23,9 9,1 15 8 36 19 WNW 1013,3 - 0,0
21.05.2019 13:00:00 23,5 8,4 14 8 34 18 NNW 1013,7 - 0,0
21.05.2019 12:00:00 22,4 8,1 14 8 33 18 WNW 1013,8 - 0,0
21.05.2019 11:00:00 20,4 8,4 16 9 35 19 W 1014,1 20 0,0
21.05.2019 10:00:00 18,7 8,9 15 8 35 19 WNW 1014,3 - 0,0
21.05.2019 09:00:00 16,9 8,8 20 11 36 19 NW 1014,3 - 0,0
21.05.2019 08:00:00 14,8 9,2 18 10 32 17 WNW 1014,0 - 0,0
21.05.2019 07:00:00 14,3 8,9 19 10 37 20 NW 1013,6 - 0,0
21.05.2019 06:00:00 14,1 8,5 24 13 40 21 NW 1013,2 - 0,0
21.05.2019 05:00:00 14,4 8,6 21 11 34 19 WNW 1013,1 - 0,0
21.05.2019 04:00:00 14,5 8,7 19 10 31 17 WNW 1013,3 - 0,0
21.05.2019 03:00:00 14,8 9,2 16 9 28 15 W 1013,2 - 0,0
21.05.2019 02:00:00 15,2 8,7 13 7 23 13 WNW 1013,5 - 0,0
21.05.2019 01:00:00 15,5 8,5 8 5 30 16 W 1013,4 - 0,0
21.05.2019 00:00:00 16,1 8,1 13 7 30 16 WNW 1013,3 - 0,0
20.05.2019 23:00:00 16,7 8,1 13 7 29 16 WNW 1013,0 - 0,0
20.05.2019 22:00:00 17,4 8,3 15 8 29 16 NW 1012,2 - 0,0
20.05.2019 21:00:00 18,4 8,1 15 8 32 18 NW 1011,6 - 0,0
20.05.2019 20:00:00 19,3 8,3 14 7 44 24 NW 1011,2 18 0,0
20.05.2019 19:00:00 20,8 7,8 16 8 44 24 NW 1010,7 - 0,0
20.05.2019 18:00:00 21,0 7,9 18 10 42 23 NW 1010,3 - 0,0
20.05.2019 17:00:00 21,3 7,9 16 9 45 24 NW 1010,3 18 0,0
20.05.2019 16:00:00 20,7 7,3 19 10 60 32 NW 1010,7 - 0,0
20.05.2019 15:00:00 20,2 8,2 16 9 46 25 NW 1011,2 - 0,0
20.05.2019 14:00:00 19,9 8,2 14 8 44 24 NW 1011,1 - 0,0
20.05.2019 13:00:00 19,2 8,8 16 9 46 25 NW 1011,1 - 0,0
20.05.2019 12:00:00 18,2 9,0 19 10 45 24 WNW 1010,6 - 0,0
20.05.2019 11:00:00 17,3 8,4 18 10 48 26 NW 1010,8 - 0,0
20.05.2019 10:00:00 15,7 8,4 19 10 49 26 NW 1010,5 - 0,0
20.05.2019 09:00:00 15,6 8,1 20 11 45 24 WNW 1010,2 - 0,0
20.05.2019 08:00:00 14,7 8,9 11 6 42 23 NW 1010,0 20 0,0
20.05.2019 07:00:00 14,2 8,6 15 8 42 23 NW 1009,5 - 0,0
20.05.2019 06:00:00 14,2 8,6 13 7 37 20 WNW 1008,8 - 0,0
20.05.2019 05:00:00 14,5 8,9 13 7 37 20 NW 1008,6 20 0,0
20.05.2019 04:00:00 14,5 8,9 18 10 49 26 WNW 1008,6 - 0,0
20.05.2019 03:00:00 14,5 8,9 22 12 42 23 NW 1008,7 - 0,0
20.05.2019 02:00:00 14,3 8,9 16 9 39 21 NW 1009,2 - 0,0
20.05.2019 01:00:00 14,3 8,9 17 9 35 19 NW 1008,9 - 0,0
20.05.2019 00:00:00 14,5 9,3 17 9 35 19 WNW 1008,6 - 0,0
19.05.2019 23:00:00 13,7 10,1 13 7 27 15 W 1008,9 - 0,2
19.05.2019 22:00:00 13,3 11,2 7 4 24 13 W 1008,7 - 0,0
19.05.2019 21:00:00 13,3 11,5 10 5 28 15 WSW 1008,1 - 1,2
19.05.2019 20:00:00 13,4 11,3 11 6 30 16 W 1008,1 8 2,6
19.05.2019 19:00:00 14,4 10,2 10 6 32 18 NW 1007,8 - 0,6
19.05.2019 18:00:00 17,2 7,8 15 8 36 19 NNW 1007,4 - 0,0
19.05.2019 17:00:00 17,3 7,9 14 8 36 19 NW 1007,3 - 0,0
19.05.2019 16:00:00 17,6 7,6 16 9 45 24 NW 1007,2 - 0,0
19.05.2019 15:00:00 17,7 7,4 17 9 44 24 NNW 1007,1 - 0,0
19.05.2019 14:00:00 18,8 6,9 22 12 44 24 N 1006,8 - 0,0
19.05.2019 13:00:00 18,4 6,9 12 7 36 19 NNW 1006,6 - 0,0
19.05.2019 12:00:00 18,2 6,7 18 10 39 21 NNW 1006,9 - 0,0
19.05.2019 11:00:00 17,3 7,3 16 9 39 21 NW 1006,8 - 0,0
19.05.2019 10:00:00 15,9 7,1 16 9 40 21 NW 1006,9 - 0,0
19.05.2019 09:00:00 14,4 7,7 10 6 29 16 WNW 1006,9 - 0,0
19.05.2019 08:00:00 12,1 7,6 11 6 31 17 W 1007,0 25 0,0
19.05.2019 07:00:00 10,9 7,4 16 9 28 15 W 1006,8 - 0,0
19.05.2019 06:00:00 11,0 7,5 18 10 34 19 W 1006,7 - 0,0
19.05.2019 05:00:00 11,8 7,7 16 9 31 17 W 1006,9 20 0,0
19.05.2019 04:00:00 12,3 7,6 13 7 27 15 W 1007,1 - 0,0
19.05.2019 03:00:00 12,6 7,1 12 7 25 14 W 1007,5 - 0,0
19.05.2019 02:00:00 12,9 7,3 6 3 27 14 NW 1007,7 - 0,0
19.05.2019 01:00:00 13,2 7,2 7 4 27 15 WNW 1008,0 - 0,0
19.05.2019 00:00:00 13,7 6,5 8 4 26 14 NW 1008,2 - 0,0
18.05.2019 23:00:00 14,4 7,2 8 4 31 17 W 1008,2 - 0,0
18.05.2019 22:00:00 15,5 7,0 11 6 34 18 NW 1007,8 - 0,0
18.05.2019 21:00:00 15,1 9,5 14 7 38 21 W 1007,1 - 0,0
18.05.2019 20:00:00 17,5 6,7 9 5 21 12 NNW 1006,4 20 0,0
18.05.2019 19:00:00 17,4 6,3 8 5 25 14 NNW 1006,2 - 0,0
18.05.2019 18:00:00 18,4 5,9 13 7 32 17 W 1006,1 - 0,0
18.05.2019 17:00:00 19,7 6,8 14 8 29 16 WNW 1005,7 - 0,0
18.05.2019 16:00:00 19,8 7,2 11 6 35 19 WNW 1005,8 - 0,0
18.05.2019 15:00:00 18,7 8,1 15 8 46 25 NW 1006,2 - 0,0
18.05.2019 14:00:00 17,5 7,8 14 8 38 20 WNW 1006,4 - 0,0
18.05.2019 13:00:00 16,4 7,6 15 8 35 19 WNW 1006,8 - 0,0
18.05.2019 12:00:00 15,6 8,1 11 6 32 18 NW 1007,0 - 0,0
18.05.2019 11:00:00 15,1 8,1 13 7 27 15 NW 1006,9 10 0,0
18.05.2019 10:00:00 13,9 9,5 6 3 23 12 NW 1006,9 - 0,0
18.05.2019 09:00:00 12,5 8,8 9 5 27 15 W 1006,8 - 0,0
18.05.2019 08:00:00 12,0 9,4 6 4 21 12 WSW 1006,4 10 0,0
18.05.2019 07:00:00 11,7 9,4 11 6 21 11 WNW 1006,1 - 0,0
18.05.2019 06:00:00 11,3 9,6 10 6 19 11 W 1005,9 15 0,0
18.05.2019 05:00:00 11,6 10,0 12 7 21 11 WNW 1006,1 15 0,0
18.05.2019 04:00:00 11,4 9,6 13 7 24 13 WNW 1006,3 - 0,0
18.05.2019 03:00:00 11,1 10,2 13 7 21 11 WNW 1006,8 - 0,0

tt = Température de l'air
td = dewpoint
ff = Vitesse du vent
fx = gusts
dd = Direction du vent
ppp = reduced air pressure
vv = visibility
rr = Quantités de précipitations

stations d'obs. à proximité